カタログに戻る

SL-12 R/B(2)

運用中HEO
NORAD 26583·ROCKET BODY·🇷🇺 Russia

打ち上げ Oct 21, 2000 から Baikonur Cosmodrome

Loading…

次のパス (今後24時間)

TLE

最新Source: Space-Track

元期: Sep 14, 2026, 01:43 UTC

1 26583U 00067D   26257.07191176 -.00000154  00000-0  00000-0 0  9992
2 26583  17.4654 257.5004 5546110  39.3902 350.1414  1.93859350182961

AllMySatでSL-12 R/B(2)をリアルタイム追跡

Download on the App Store